Location: Newark
(12.4436°N, 0.6167°W)
Time: 10:41:06
(UTC+00:00)

Vanguard 1 - Pass Details

Date: 14 December 2019
Orbit: 651 x 3833 km, 34.2° (Epoch: 24 January)

Event Time Altitude Azimuth Distance (km) Brightness Sun altitude
Rises 04:11:59 0° 271° (W) 7,351 - -28.8°
Reaches altitude 10° 04:17:11 10° 278° (W) 6,604 - -27.6°
Exits shadow 04:27:51 31° 300° (WNW) 5,329 13.1 -25.1°
Maximum altitude 04:38:34 43° 344° (NNW) 4,672 13.1 -22.7°
Drops below altitude 10° 04:57:28 10° 52° (NE) 5,869 14.4 -18.4°
Sets 05:01:48 0° 59° (ENE) 6,510 14.8 -17.4°
